FLOCK 3P-15 (42039 NORAD) Tracking and Keplerian Element Data

This shows tracking and keplerian element data for the satellite.

Feedback or suggestion? Click here.




ElementValue
Catalog42039
NameFLOCK 3P-15
Epoch Orbit5461
Epoch Day45.59986878
Epoch Year2018
RAAN111.1907
Inclination97.4654
Eccentricity0.0009394
Argument of Perigee88.2681
Mean Anonmoly271.9632
Mean Motion15.23930872
Decay Rate1.196E-05
L11 42039U 17008CV 18045.59986878 .00001196 00000-0 52435-4 0 9992
L22 42039 97.4654 111.1907 0009394 88.2681 271.9632 15.23930872 54619

Live tracking and technical data element details for FLOCK 3P-15 (NORAD 42039). FLOCK 3P-15 can be tracked NOW for your location showing map with azimuth and elevation plus other details from your city location.

Track the satellite on the map from your city or location and see movement details for azimuth, elevation, latitude, longitude, range, height, and movement on the map or in text.







IsCatalogInMostPopularTable: catalog: 42039, numindb: 147
Update: records affected: 1



GetName: 42039 FLOCK 3P-15

Hit Count: updated at: Fri, 16 Nov 2018 10:18:00 GMT